Time,TemperatureF,DewpointF,PressureIn,WindDirection,WindDirectionDegrees,WindSpeedMPH,WindSpeedGustMPH,Humidity,HourlyPrecipIn,Conditions,Clouds,dailyrainin,SoftwareType,DateUTC
2013-01-03 00:05:00,42.5,24.0,30.18,ENE,68,11.0,23.0,49,0.00,,,0.00,weatherlink.com 1.10,2013-01-03 08:05:00,
2013-01-03 00:20:00,41.5,24.0,30.18,ENE,69,13.0,27.0,50,0.00,,,0.00,weatherlink.com 1.10,2013-01-03 08:20:00,
2013-01-03 00:35:00,40.8,23.0,30.17,NNW,327,7.0,25.0,50,0.00,,,0.00,weatherlink.com 1.10,2013-01-03 08:35:00,
2013-01-03 00:50:00,40.4,23.0,30.17,NNE,31,14.0,27.0,51,0.00,,,0.00,weatherlink.com 1.10,2013-01-03 08:50:00,
2013-01-03 01:05:00,39.8,23.0,30.17,East,86,28.0,33.0,52,0.00,,,0.00,weatherlink.com 1.10,2013-01-03 09:05:00,
2013-01-03 01:20:00,39.3,23.0,30.18,NNE,17,9.0,26.0,53,0.00,,,0.00,weatherlink.com 1.10,2013-01-03 09:20:00,
2013-01-03 01:36:00,39.6,24.0,30.17,ENE,70,18.0,24.0,53,0.00,,,0.00,weatherlink.com 1.10,2013-01-03 09:36:00,
2013-01-03 01:51:00,38.9,23.0,30.17,NE,54,12.0,27.0,54,0.00,,,0.00,weatherlink.com 1.10,2013-01-03 09:51:00,
2013-01-03 02:06:00,38.9,23.0,30.17,NNE,31,6.0,20.0,54,0.00,,,0.00,weatherlink.com 1.10,2013-01-03 10:06:00,
2013-01-03 02:21:00,39.7,23.0,30.17,NE,55,20.0,25.0,52,0.00,,,0.00,weatherlink.com 1.10,2013-01-03 10:21:00,
2013-01-03 02:36:00,39.5,23.0,30.16,ENE,78,24.0,27.0,52,0.00,,,0.00,weatherlink.com 1.10,2013-01-03 10:36:00,
2013-01-03 02:51:00,39.8,23.0,30.17,NE,55,11.0,30.0,51,0.00,,,0.00,weatherlink.com 1.10,2013-01-03 10:51:00,
2013-01-03 03:06:00,39.9,23.0,30.16,NNE,19,15.0,25.0,51,0.00,,,0.00,weatherlink.com 1.10,2013-01-03 11:06:00,
2013-01-03 03:21:00,40.5,23.0,30.15,ENE,62,11.0,23.0,50,0.00,,,0.00,weatherlink.com 1.10,2013-01-03 11:21:00,
2013-01-03 03:36:00,40.0,23.0,30.16,ENE,76,12.0,31.0,50,0.00,,,0.00,weatherlink.com 1.10,2013-01-03 11:36:00,
2013-01-03 03:51:00,39.9,22.0,30.15,ENE,59,14.0,23.0,50,0.00,,,0.00,weatherlink.com 1.10,2013-01-03 11:51:00,
2013-01-03 04:06:00,39.9,22.0,30.14,East,80,13.0,26.0,49,0.00,,,0.00,weatherlink.com 1.10,2013-01-03 12:06:00,
2013-01-03 04:21:00,39.8,22.0,30.14,ENE,75,14.0,28.0,49,0.00,,,0.00,weatherlink.com 1.10,2013-01-03 12:21:00,
2013-01-03 04:36:00,39.5,22.0,30.15,ENE,62,24.0,24.0,50,0.00,,,0.00,weatherlink.com 1.10,2013-01-03 12:36:00,
2013-01-03 04:51:00,39.5,22.0,30.15,ENE,58,13.0,28.0,50,0.00,,,0.00,weatherlink.com 1.10,2013-01-03 12:51:00,
2013-01-03 05:06:00,38.7,22.0,30.14,ENE,76,30.0,30.0,51,0.00,,,0.00,weatherlink.com 1.10,2013-01-03 13:06:00,
2013-01-03 05:21:00,39.1,22.0,30.14,SE,141,9.0,33.0,50,0.00,,,0.00,weatherlink.com 1.10,2013-01-03 13:21:00,
2013-01-03 05:36:00,38.6,22.0,30.14,East,99,11.0,26.0,52,0.00,,,0.00,weatherlink.com 1.10,2013-01-03 13:36:00,
2013-01-03 05:51:00,37.9,22.0,30.14,East,82,15.0,23.0,52,0.00,,,0.00,weatherlink.com 1.10,2013-01-03 13:51:00,
2013-01-03 06:06:00,37.4,22.0,30.14,East,98,15.0,20.0,53,0.00,,,0.00,weatherlink.com 1.10,2013-01-03 14:06:00,
2013-01-03 06:21:00,37.5,22.0,30.14,East,97,16.0,24.0,53,0.00,,,0.00,weatherlink.com 1.10,2013-01-03 14:21:00,
2013-01-03 06:36:00,38.6,22.0,30.13,ESE,113,17.0,23.0,51,0.00,,,0.00,weatherlink.com 1.10,2013-01-03 14:36:00,
2013-01-03 06:51:00,38.7,21.0,30.14,East,94,6.0,27.0,50,0.00,,,0.00,weatherlink.com 1.10,2013-01-03 14:51:00,
2013-01-03 07:06:00,38.4,21.0,30.14,NE,47,10.0,26.0,50,0.00,,,0.00,weatherlink.com 1.10,2013-01-03 15:06:00,
2013-01-03 07:21:00,38.3,21.0,30.13,East,96,14.0,30.0,51,0.00,,,0.00,weatherlink.com 1.10,2013-01-03 15:21:00,
2013-01-03 07:36:00,38.4,22.0,30.13,ENE,70,10.0,24.0,51,0.00,,,0.00,weatherlink.com 1.10,2013-01-03 15:36:00,
2013-01-03 07:51:00,37.6,21.0,30.14,East,86,16.0,28.0,52,0.00,,,0.00,weatherlink.com 1.10,2013-01-03 15:51:00,
2013-01-03 08:06:00,38.3,21.0,30.15,ESE,113,14.0,26.0,51,0.00,,,0.00,weatherlink.com 1.10,2013-01-03 16:06:00,
2013-01-03 08:21:00,39.3,21.0,30.16,ENE,72,16.0,27.0,49,0.00,,,0.00,weatherlink.com 1.10,2013-01-03 16:21:00,
2013-01-03 08:36:00,39.1,22.0,30.14,East,82,20.0,23.0,50,0.00,,,0.00,weatherlink.com 1.10,2013-01-03 16:36:00,
2013-01-03 08:51:00,38.6,21.0,30.15,ENE,72,12.0,25.0,50,0.00,,,0.00,weatherlink.com 1.10,2013-01-03 16:51:00,
2013-01-03 09:06:00,38.3,21.0,30.15,NE,36,8.0,24.0,51,0.00,,,0.00,weatherlink.com 1.10,2013-01-03 17:06:00,
2013-01-03 09:21:00,39.1,21.0,30.15,NE,55,14.0,25.0,49,0.00,,,0.00,weatherlink.com 1.10,2013-01-03 17:21:00,
2013-01-03 09:36:00,39.0,21.0,30.15,East,93,7.0,30.0,49,0.00,,,0.00,weatherlink.com 1.10,2013-01-03 17:36:00,
2013-01-03 09:51:00,39.0,22.0,30.14,ESE,120,16.0,32.0,50,0.00,,,0.00,weatherlink.com 1.10,2013-01-03 17:51:00,
2013-01-03 10:06:00,39.1,22.0,30.15,East,82,14.0,25.0,50,0.00,,,0.00,weatherlink.com 1.10,2013-01-03 18:06:00,
2013-01-03 10:21:00,38.8,22.0,30.16,ESE,104,7.0,28.0,51,0.00,,,0.00,weatherlink.com 1.10,2013-01-03 18:21:00,
2013-01-03 10:36:00,39.4,22.0,30.16,ENE,69,9.0,27.0,51,0.00,,,0.00,weatherlink.com 1.10,2013-01-03 18:36:00,
2013-01-03 10:51:00,40.8,22.0,30.16,East,94,11.0,19.0,48,0.00,,,0.00,weatherlink.com 1.10,2013-01-03 18:51:00,
2013-01-03 11:06:00,40.3,22.0,30.16,ESE,108,9.0,18.0,49,0.00,,,0.00,weatherlink.com 1.10,2013-01-03 19:06:00,
2013-01-03 11:51:00,39.9,23.0,30.16,ESE,106,8.0,20.0,51,0.00,,,0.00,weatherlink.com 1.10,2013-01-03 19:51:00,
2013-01-03 12:06:00,40.2,23.0,30.15,WNW,294,2.0,24.0,51,0.00,,,0.00,weatherlink.com 1.10,2013-01-03 20:06:00,
2013-01-03 12:21:00,40.0,23.0,30.16,East,88,7.0,25.0,52,0.00,,,0.00,weatherlink.com 1.10,2013-01-03 20:21:00,
2013-01-03 12:36:00,40.2,24.0,30.15,ENE,67,4.0,15.0,53,0.00,,,0.00,weatherlink.com 1.10,2013-01-03 20:36:00,
2013-01-03 12:52:00,40.5,24.0,30.15,NE,49,5.0,19.0,53,0.00,,,0.00,weatherlink.com 1.10,2013-01-03 20:52:00,
2013-01-03 13:07:00,40.3,24.0,30.14,East,90,9.0,19.0,53,0.00,,,0.00,weatherlink.com 1.10,2013-01-03 21:07:00,
2013-01-03 13:22:00,40.9,25.0,30.14,NW,312,3.0,18.0,54,0.00,,,0.00,weatherlink.com 1.10,2013-01-03 21:22:00,
2013-01-03 13:37:00,41.6,26.0,30.13,NNE,17,8.0,20.0,55,0.00,,,0.00,weatherlink.com 1.10,2013-01-03 21:37:00,
2013-01-03 13:52:00,42.4,28.0,30.13,NNE,17,16.0,21.0,58,0.00,,,0.00,weatherlink.com 1.10,2013-01-03 21:52:00,
2013-01-03 14:07:00,40.8,30.0,30.13,East,79,10.0,20.0,65,0.00,,,0.00,weatherlink.com 1.10,2013-01-03 22:07:00,
2013-01-03 14:22:00,40.6,29.0,30.12,SE,129,11.0,19.0,64,0.00,,,0.00,weatherlink.com 1.10,2013-01-03 22:22:00,
2013-01-03 14:37:00,40.1,31.0,30.13,NNE,23,2.0,21.0,71,0.00,,,0.00,weatherlink.com 1.10,2013-01-03 22:37:00,
2013-01-03 14:52:00,39.3,32.0,30.14,NE,52,15.0,19.0,76,0.00,,,0.00,weatherlink.com 1.10,2013-01-03 22:52:00,
2013-01-03 15:07:00,38.7,33.0,30.14,NE,55,7.0,23.0,80,0.00,,,0.00,weatherlink.com 1.10,2013-01-03 23:07:00,
2013-01-03 15:22:00,37.9,34.0,30.14,SE,137,11.0,19.0,85,0.00,,,0.00,weatherlink.com 1.10,2013-01-03 23:22:00,
2013-01-03 15:37:00,37.5,34.0,30.14,East,101,14.0,18.0,87,0.00,,,0.00,weatherlink.com 1.10,2013-01-03 23:37:00,
2013-01-03 15:52:00,37.6,35.0,30.14,ESE,110,15.0,22.0,89,0.00,,,0.00,weatherlink.com 1.10,2013-01-03 23:52:00,
2013-01-03 16:07:00,38.5,36.0,30.14,ESE,112,10.0,30.0,89,0.00,,,0.00,weatherlink.com 1.10,2013-01-04 00:07:00,
2013-01-03 16:22:00,39.4,37.0,30.14,ESE,112,2.0,21.0,91,0.01,,,0.01,weatherlink.com 1.10,2013-01-04 00:22:00,
2013-01-03 16:37:00,40.5,38.0,30.14,SE,144,13.0,25.0,91,0.02,,,0.02,weatherlink.com 1.10,2013-01-04 00:37:00,
2013-01-03 16:52:00,41.3,39.0,30.15,NW,310,4.0,12.0,91,0.03,,,0.03,weatherlink.com 1.10,2013-01-04 00:52:00,
2013-01-03 17:07:00,41.9,40.0,30.14,East,93,7.0,15.0,91,0.03,,,0.03,weatherlink.com 1.10,2013-01-04 01:07:00,
2013-01-03 17:22:00,42.5,40.0,30.16,East,95,17.0,18.0,92,0.03,,,0.04,weatherlink.com 1.10,2013-01-04 01:22:00,
2013-01-03 17:37:00,43.5,41.0,30.16,ENE,77,3.0,27.0,92,0.03,,,0.05,weatherlink.com 1.10,2013-01-04 01:37:00,
2013-01-03 17:52:00,44.1,42.0,30.16,NE,34,2.0,15.0,93,0.04,,,0.07,weatherlink.com 1.10,2013-01-04 01:52:00,
2013-01-03 18:07:00,44.6,43.0,30.17,SE,139,3.0,18.0,93,0.04,,,0.08,weatherlink.com 1.10,2013-01-04 02:07:00,
2013-01-03 18:22:00,45.1,43.0,30.17,ESE,122,3.0,11.0,92,0.05,,,0.09,weatherlink.com 1.10,2013-01-04 02:22:00,
2013-01-03 18:37:00,45.2,43.0,30.18,ENE,69,2.0,16.0,93,0.04,,,0.10,weatherlink.com 1.10,2013-01-04 02:37:00,
2013-01-03 18:52:00,46.3,44.0,30.18,SSW,210,7.0,17.0,93,0.04,,,0.11,weatherlink.com 1.10,2013-01-04 02:52:00,
2013-01-03 19:07:00,47.2,45.0,30.19,ENE,78,3.0,16.0,93,0.04,,,0.12,weatherlink.com 1.10,2013-01-04 03:07:00,
2013-01-03 19:22:00,47.7,46.0,30.19,SE,137,22.0,22.0,93,0.04,,,0.13,weatherlink.com 1.10,2013-01-04 03:22:00,
2013-01-03 19:37:00,48.2,46.0,30.20,WNW,300,0.0,23.0,93,0.04,,,0.14,weatherlink.com 1.10,2013-01-04 03:37:00,
2013-01-03 19:52:00,48.6,47.0,30.22,South,175,3.0,16.0,93,0.04,,,0.15,weatherlink.com 1.10,2013-01-04 03:52:00,
2013-01-03 20:07:00,48.4,47.0,30.21,SSE,148,12.0,15.0,93,0.06,,,0.18,weatherlink.com 1.10,2013-01-04 04:07:00,
2013-01-03 20:22:00,48.1,47.0,30.23,NW,316,0.0,12.0,94,0.40,,,0.53,weatherlink.com 1.10,2013-01-04 04:22:00,
2013-01-03 20:37:00,48.1,47.0,30.23,East,90,3.0,7.0,94,0.39,,,0.53,weatherlink.com 1.10,2013-01-04 04:37:00,
2013-01-03 20:52:00,48.3,47.0,30.24,West,275,4.0,9.0,94,0.38,,,0.53,weatherlink.com 1.10,2013-01-04 04:52:00,
2013-01-03 21:23:00,48.8,47.0,30.25,West,278,6.0,11.0,94,0.00,,,0.53,weatherlink.com 1.10,2013-01-04 05:23:00,
2013-01-03 21:38:00,48.8,47.0,30.26,West,275,7.0,11.0,94,0.00,,,0.53,weatherlink.com 1.10,2013-01-04 05:38:00,
2013-01-03 21:53:00,48.9,47.0,30.26,WNW,302,8.0,14.0,94,0.00,,,0.53,weatherlink.com 1.10,2013-01-04 05:53:00,
2013-01-03 22:08:00,48.9,47.0,30.27,NNW,328,0.0,11.0,94,0.00,,,0.53,weatherlink.com 1.10,2013-01-04 06:08:00,
2013-01-03 22:23:00,48.8,47.0,30.28,West,263,2.0,13.0,94,0.00,,,0.53,weatherlink.com 1.10,2013-01-04 06:23:00,
2013-01-03 22:38:00,48.8,47.0,30.28,West,272,7.0,11.0,94,0.00,,,0.53,weatherlink.com 1.10,2013-01-04 06:38:00,
2013-01-03 22:53:00,48.8,47.0,30.29,WNW,299,6.0,10.0,94,0.00,,,0.53,weatherlink.com 1.10,2013-01-04 06:53:00,
2013-01-03 23:08:00,48.8,47.0,30.29,West,269,3.0,10.0,94,0.00,,,0.53,weatherlink.com 1.10,2013-01-04 07:08:00,
2013-01-03 23:23:00,48.5,47.0,30.30,WNW,282,4.0,14.0,94,0.00,,,0.53,weatherlink.com 1.10,2013-01-04 07:23:00,
2013-01-03 23:38:00,48.4,47.0,30.30,NNW,336,2.0,10.0,95,0.00,,,0.53,weatherlink.com 1.10,2013-01-04 07:38:00,
2013-01-03 23:53:00,48.3,47.0,30.31,WNW,296,5.0,10.0,95,0.00,,,0.53,weatherlink.com 1.10,2013-01-04 07:53:00,